Location: N�rnberg
(49.4471°N, 11.0632°E)
Time: 18:06:23
(UTC+01:00)

ARIANE 6 FM1 Upper Stage - Pass Details

Date: 18 February 2026
Orbit: 523 x 607 km, 62.0° (Epoch: 8 March)

Event Time Altitude Azimuth Distance (km) Brightness Sun altitude
Rises 20:16:30 0° 299° (WNW) 2,659 7.3 -25.9°
Reaches altitude 10° 20:19:50 10° 269° (W) 1,768 6.1 -26.4°
Maximum altitude 20:21:28 12° 245° (WSW) 1,627 5.6 -26.7°
Drops below altitude 10° 20:23:07 10° 220° (SW) 1,771 5.5 -26.9°
Enters shadow 20:24:13 - 207° (SSW) 2,004 5.6 -27.1°
